Terminal Aerodrome Forecast
Issued by NWS

Home | Current Version | Previous Version | Text Only | Print | Product List | Glossary On
Versions: 1 2 3 4 5 6 7 8 9 10 11 12 13
000
FTAK31 PAJN 291126
TAFASI
TAF
PASI 291126Z 2912/3012 09005KT P6SM VCSH FEW035 SCT060
      TEMPO 2913/2917 6SM -SHRA BKN035 OVC050
     FM291700 VRB05KT P6SM VCSH SCT025 BKN040
     FM292200 23009KT P6SM FEW035 BKN050
     FM300400 18005KT P6SM OVC040=

USA.gov is the U.S. government's official web portal to all federal, state and local government web resources and services.